Location: Bakhuizen
(52.8696°N, 5.4575°E)
Time: 21:47:15
(UTC+00:00)

USA 290 - Pass Details

Date: 11 May 2021
Orbit: 400 x 415 km, 73.6° (Epoch: 12 May)

Event Time Altitude Azimuth Distance (km) Brightness Sun altitude
Rises 20:01:36 0° 326° (NW) 2,355 7.9 -5.5°
Reaches altitude 10° 20:03:47 10° 315° (NW) 1,485 6.9 -5.7°
Maximum altitude 20:06:41 30° 252° (WSW) 765 3.9 -6.1°
Drops below altitude 10° 20:09:33 10° 190° (S) 1,466 4.7 -6.4°
Enters shadow 20:11:37 - 179° (S) 2,284 5.6 -6.6°
